(°C)
17°
16°
16°
15°
15°
15°
15°
(°C)
13°
13°
13°
13°
13°
13°
13°
Ν
Ν
Ν
Ν
Ν
ΝΝΔ
ΝΝΔ
(χλμ / ω)
21-33
20-32
18-31
16-30
16-30
16-31
16-31
(χιλιοστά)
0
0
0
0
0
0
0
(%)
0
0
0
0
0
0
0

Ανύψωση ήλιου

/ 24.2°
sun-icon
UV 8
05:11
20:05
Φθίνων αμφίκυρτος (φάση σελήνης) (315°)
03:22
16:25

METAR για Barnstable (KHYA)

Χρόνος Συνθήκες Θερμοκρασία/
Σημείο δρόσου
Άνεμος Ορατότητα Καιρός Νέφη Πίεση Αλλαγή Ανεπεξέργαστο
VFR 17.2°C / 11.1°C 190º 10kt Gust 17kt >10km - Clear 1023 - KHYA 262056Z 19010G17KT 10SM CLR 17/11 A3022 RMK AO2 SLP233 T01720111 56024
VFR 17.2°C / 10.6°C 180º 12kt Gust 17kt >10km - Clear 1024 - KHYA 261956Z 18012G17KT 10SM CLR 17/11 A3024 RMK AO2 SLP240 T01720106
VFR 17.2°C / 9.4°C 180º 11kt Gust 21kt >10km - Clear 1024 - KHYA 261856Z 18011G21KT 10SM CLR 17/09 A3026 RMK AO2 SLP249 T01720094
VFR 17.2°C / 10°C 180º 12kt Gust 19kt >10km - Clear 1025 - KHYA 261756Z 18012G19KT 10SM CLR 17/10 A3029 RMK AO2 SLP258 T01720100 10178 20133 58020
VFR 16.7°C / 10.6°C 180º 10kt Gust 16kt >10km - Clear 1026 - KHYA 261656Z 18010G16KT 10SM CLR 17/11 A3031 RMK AO2 SLP266 T01670106
VFR 16.7°C / 11.1°C 170º 10kt >10km - Scattered Clouds 1600ft 1027 - KHYA 261556Z 17010KT 10SM SCT016 17/11 A3033 RMK AO2 SLP272 T01670111
VFR 15.6°C / 10.6°C 190º 8kt >10km - Few Clouds 1500ft 1027 - KHYA 261456Z 19008KT 10SM FEW015 16/11 A3035 RMK AO2 SLP278 T01560106 58006
VFR 15°C / 9.4°C 190º 7kt >10km - Clear 1028 - KHYA 261356Z 19007KT 10SM CLR 15/09 A3036 RMK AO2 SLP282 T01500094
VFR 14.4°C / 6.7°C 140º 8kt >10km - Clear 1028 - KHYA 261256Z 14008KT 10SM CLR 14/07 A3036 RMK AO2 SLP281 T01440067
VFR 13.9°C / 8.3°C variable 4kt >10km - Clear 1028 - KHYA 261156Z VRB04KT 10SM CLR 14/08 A3037 RMK AO2 SLP284 T01390083 10139 20061 53004
VFR 12.8°C / 8.3°C 150º 4kt >10km - Clear 1028 - KHYA 261056Z 15004KT 10SM CLR 13/08 A3036 RMK AO2 SLP281 T01280083
VFR 7.2°C / 5.6°C variable 0kt >10km - Clear 1028 - KHYA 260956Z 00000KT 10SM CLR 07/06 A3036 RMK AO2 SLP280 T00720056
VFR 6.7°C / 4.4°C variable 0kt >10km - Clear 1028 - KHYA 260856Z AUTO 00000KT 10SM CLR 07/04 A3035 RMK AO2 SLP280 T00670044 55002
VFR 7.2°C / 5°C variable 0kt >10km - Clear 1027 - KHYA 260756Z AUTO 00000KT 10SM CLR 07/05 A3035 RMK AO2 SLP278 T00720050
VFR 10°C / 5°C variable 0kt >10km - Clear 1027 - KHYA 260656Z AUTO 00000KT 10SM CLR 10/05 A3035 RMK AO2 SLP279 T01000050
VFR 11.1°C / 6.1°C variable 0kt >10km - Clear 1028 - KHYA 260556Z AUTO 00000KT 10SM CLR 11/06 A3036 RMK AO2 SLP282 T01110061 10122 20111 58001
VFR 11.7°C / 5.6°C 200º 5kt >10km - Clear 1028 - KHYA 260456Z AUTO 20005KT 10SM CLR 12/06 A3037 RMK AO2 SLP286 T01170056 401610050
VFR 11.7°C / 5.6°C 200º 5kt >10km - Clear 1028 - KHYA 260356Z AUTO 20005KT 10SM CLR 12/06 A3037 RMK AO2 SLP285 T01170056
VFR 11.7°C / 5.6°C 170º 5kt >10km - Clear 1028 - KHYA 260256Z AUTO 17005KT 10SM CLR 12/06 A3037 RMK AO2 SLP284 T01170056 50003
VFR 11.7°C / 5.6°C 200º 4kt >10km - Clear 1028 - KHYA 260156Z 20004KT 10SM CLR 12/06 A3038 RMK AO2 SLP288 T01170056
VFR 12.2°C / 6.7°C 170º 6kt >10km - Clear 1028 - KHYA 260056Z 17006KT 10SM CLR 12/07 A3037 RMK AO2 SLP284 T01220067
VFR 12.2°C / 6.1°C 180º 5kt >10km - Clear 1028 - KHYA 252356Z 18005KT 10SM CLR 12/06 A3036 RMK AO2 SLP280 T01220061 10161 20122 56008
VFR 13.3°C / 6.1°C 180º 6kt >10km - Clear 1028 - KHYA 252256Z 18006KT 10SM CLR 13/06 A3036 RMK AO2 SLP283 T01330061
VFR 13.9°C / 6.1°C variable 6kt >10km - Clear 1028 - KHYA 252156Z VRB06KT 10SM CLR 14/06 A3037 RMK AO2 SLP285 T01390061

VFR

17.2°C / 11.1°C

[Περισσότερο]
Άνεμος 190º 10kt Gust 17kt
Ορατότητα >10km
Καιρός -
Νέφη Clear
Πίεση 1023
Αλλαγή -
Ανεπεξέργαστο KHYA 262056Z 19010G17KT 10SM CLR 17/11 A3022 RMK AO2 SLP233 T01720111 56024

VFR

17.2°C / 10.6°C

[Περισσότερο]
Άνεμος 180º 12kt Gust 17kt
Ορατότητα >10km
Καιρός -
Νέφη Clear
Πίεση 1024
Αλλαγή -
Ανεπεξέργαστο KHYA 261956Z 18012G17KT 10SM CLR 17/11 A3024 RMK AO2 SLP240 T01720106

VFR

17.2°C / 9.4°C

[Περισσότερο]
Άνεμος 180º 11kt Gust 21kt
Ορατότητα >10km
Καιρός -
Νέφη Clear
Πίεση 1024
Αλλαγή -
Ανεπεξέργαστο KHYA 261856Z 18011G21KT 10SM CLR 17/09 A3026 RMK AO2 SLP249 T01720094

VFR

17.2°C / 10°C

[Περισσότερο]
Άνεμος 180º 12kt Gust 19kt
Ορατότητα >10km
Καιρός -
Νέφη Clear
Πίεση 1025
Αλλαγή -
Ανεπεξέργαστο KHYA 261756Z 18012G19KT 10SM CLR 17/10 A3029 RMK AO2 SLP258 T01720100 10178 20133 58020

VFR

16.7°C / 10.6°C

[Περισσότερο]
Άνεμος 180º 10kt Gust 16kt
Ορατότητα >10km
Καιρός -
Νέφη Clear
Πίεση 1026
Αλλαγή -
Ανεπεξέργαστο KHYA 261656Z 18010G16KT 10SM CLR 17/11 A3031 RMK AO2 SLP266 T01670106

VFR

16.7°C / 11.1°C

[Περισσότερο]
Άνεμος 170º 10kt
Ορατότητα >10km
Καιρός -
Νέφη Scattered Clouds 1600ft
Πίεση 1027
Αλλαγή -
Ανεπεξέργαστο KHYA 261556Z 17010KT 10SM SCT016 17/11 A3033 RMK AO2 SLP272 T01670111

VFR

15.6°C / 10.6°C

[Περισσότερο]
Άνεμος 190º 8kt
Ορατότητα >10km
Καιρός -
Νέφη Few Clouds 1500ft
Πίεση 1027
Αλλαγή -
Ανεπεξέργαστο KHYA 261456Z 19008KT 10SM FEW015 16/11 A3035 RMK AO2 SLP278 T01560106 58006

VFR

15°C / 9.4°C

[Περισσότερο]
Άνεμος 190º 7kt
Ορατότητα >10km
Καιρός -
Νέφη Clear
Πίεση 1028
Αλλαγή -
Ανεπεξέργαστο KHYA 261356Z 19007KT 10SM CLR 15/09 A3036 RMK AO2 SLP282 T01500094

VFR

14.4°C / 6.7°C

[Περισσότερο]
Άνεμος 140º 8kt
Ορατότητα >10km
Καιρός -
Νέφη Clear
Πίεση 1028
Αλλαγή -
Ανεπεξέργαστο KHYA 261256Z 14008KT 10SM CLR 14/07 A3036 RMK AO2 SLP281 T01440067

VFR

13.9°C / 8.3°C

[Περισσότερο]
Άνεμος variable 4kt
Ορατότητα >10km
Καιρός -
Νέφη Clear
Πίεση 1028
Αλλαγή -
Ανεπεξέργαστο KHYA 261156Z VRB04KT 10SM CLR 14/08 A3037 RMK AO2 SLP284 T01390083 10139 20061 53004

VFR

12.8°C / 8.3°C

[Περισσότερο]
Άνεμος 150º 4kt
Ορατότητα >10km
Καιρός -
Νέφη Clear
Πίεση 1028
Αλλαγή -
Ανεπεξέργαστο KHYA 261056Z 15004KT 10SM CLR 13/08 A3036 RMK AO2 SLP281 T01280083

VFR

7.2°C / 5.6°C

[Περισσότερο]
Άνεμος variable 0kt
Ορατότητα >10km
Καιρός -
Νέφη Clear
Πίεση 1028
Αλλαγή -
Ανεπεξέργαστο KHYA 260956Z 00000KT 10SM CLR 07/06 A3036 RMK AO2 SLP280 T00720056

VFR

6.7°C / 4.4°C

[Περισσότερο]
Άνεμος variable 0kt
Ορατότητα >10km
Καιρός -
Νέφη Clear
Πίεση 1028
Αλλαγή -
Ανεπεξέργαστο KHYA 260856Z AUTO 00000KT 10SM CLR 07/04 A3035 RMK AO2 SLP280 T00670044 55002

VFR

7.2°C / 5°C

[Περισσότερο]
Άνεμος variable 0kt
Ορατότητα >10km
Καιρός -
Νέφη Clear
Πίεση 1027
Αλλαγή -
Ανεπεξέργαστο KHYA 260756Z AUTO 00000KT 10SM CLR 07/05 A3035 RMK AO2 SLP278 T00720050

VFR

10°C / 5°C

[Περισσότερο]
Άνεμος variable 0kt
Ορατότητα >10km
Καιρός -
Νέφη Clear
Πίεση 1027
Αλλαγή -
Ανεπεξέργαστο KHYA 260656Z AUTO 00000KT 10SM CLR 10/05 A3035 RMK AO2 SLP279 T01000050

VFR

11.1°C / 6.1°C

[Περισσότερο]
Άνεμος variable 0kt
Ορατότητα >10km
Καιρός -
Νέφη Clear
Πίεση 1028
Αλλαγή -
Ανεπεξέργαστο KHYA 260556Z AUTO 00000KT 10SM CLR 11/06 A3036 RMK AO2 SLP282 T01110061 10122 20111 58001

VFR

11.7°C / 5.6°C

[Περισσότερο]
Άνεμος 200º 5kt
Ορατότητα >10km
Καιρός -
Νέφη Clear
Πίεση 1028
Αλλαγή -
Ανεπεξέργαστο KHYA 260456Z AUTO 20005KT 10SM CLR 12/06 A3037 RMK AO2 SLP286 T01170056 401610050

VFR

11.7°C / 5.6°C

[Περισσότερο]
Άνεμος 200º 5kt
Ορατότητα >10km
Καιρός -
Νέφη Clear
Πίεση 1028
Αλλαγή -
Ανεπεξέργαστο KHYA 260356Z AUTO 20005KT 10SM CLR 12/06 A3037 RMK AO2 SLP285 T01170056

VFR

11.7°C / 5.6°C

[Περισσότερο]
Άνεμος 170º 5kt
Ορατότητα >10km
Καιρός -
Νέφη Clear
Πίεση 1028
Αλλαγή -
Ανεπεξέργαστο KHYA 260256Z AUTO 17005KT 10SM CLR 12/06 A3037 RMK AO2 SLP284 T01170056 50003

VFR

11.7°C / 5.6°C

[Περισσότερο]
Άνεμος 200º 4kt
Ορατότητα >10km
Καιρός -
Νέφη Clear
Πίεση 1028
Αλλαγή -
Ανεπεξέργαστο KHYA 260156Z 20004KT 10SM CLR 12/06 A3038 RMK AO2 SLP288 T01170056

VFR

12.2°C / 6.7°C

[Περισσότερο]
Άνεμος 170º 6kt
Ορατότητα >10km
Καιρός -
Νέφη Clear
Πίεση 1028
Αλλαγή -
Ανεπεξέργαστο KHYA 260056Z 17006KT 10SM CLR 12/07 A3037 RMK AO2 SLP284 T01220067

VFR

12.2°C / 6.1°C

[Περισσότερο]
Άνεμος 180º 5kt
Ορατότητα >10km
Καιρός -
Νέφη Clear
Πίεση 1028
Αλλαγή -
Ανεπεξέργαστο KHYA 252356Z 18005KT 10SM CLR 12/06 A3036 RMK AO2 SLP280 T01220061 10161 20122 56008

VFR

13.3°C / 6.1°C

[Περισσότερο]
Άνεμος 180º 6kt
Ορατότητα >10km
Καιρός -
Νέφη Clear
Πίεση 1028
Αλλαγή -
Ανεπεξέργαστο KHYA 252256Z 18006KT 10SM CLR 13/06 A3036 RMK AO2 SLP283 T01330061

VFR

13.9°C / 6.1°C

[Περισσότερο]
Άνεμος variable 6kt
Ορατότητα >10km
Καιρός -
Νέφη Clear
Πίεση 1028
Αλλαγή -
Ανεπεξέργαστο KHYA 252156Z VRB06KT 10SM CLR 14/06 A3037 RMK AO2 SLP285 T01390061

TAF για Barnstable (KHYA)

From till


From till Wind 180º 12kt. Gust 19kt. Visibility 10km or more. Few Clouds 2000ft. Broken Clouds 25000ft.
From till Wind 190º 12kt. Gust 19kt. Visibility 10km or more. Broken Clouds 25000ft.
From till Wind 200º 12kt. Gust 19kt. Visibility 10km or more. Broken Clouds 2500ft.
From till Wind 200º 12kt. Visibility 4800m. Mist . Overcast 800ft.
From till Wind 200º 14kt. Gust 21kt. Visibility 4800m. Mist . Overcast 300ft.

Ανεπεξέργαστο: KHYA 261734Z 2618/2718 18012G19KT P6SM FEW020 BKN250 FM262300 19012G19KT P6SM BKN250 FM270300 20012G19KT P6SM BKN025 FM271000 20012KT 3SM BR OVC008 FM271200 20014G21KT 3SM BR OVC003

Ραντάρ και πρόγνωση υετού μικρής διάρκειας για Barnstable

Ψιλοβρέχει
Φως
Μέτρια
Βαριά
Πολύ βαρύ
Χαλάζι

Ο δείκτης θέσης τοποθετείται στο Barnstable. Αυτή η κινούμενη εικόνα δείχνει την ραντάρ βροχόπτωσης για την τελευταία ώρα, καθώς και 1πρόγνωση h. Το ψιλόβροχο ή το ελαφρύ χιόνι μπορεί να είναι αόρατο για το ραντάρ. Η ένταση της βροχόπτωσης είναι χρωματικά κωδικοποιημένη και κυμαίνεται από γαλάζιο έως πορτοκαλί.

Τρέχουσες εικόνες δορυφόρου για Barnstable, ΗΠΑ

Η ένδειξη τοποθεσίας τοποθετείται στο Barnstable. [Περισσότερο]

Οι δορυφορικές εικόνες σε πραγματικό χρόνο συνδυάζουν ορατό φως κατά τη διάρκεια της ημέρας με υπέρυθρη ακτινοβολία κατά τη διάρκεια της νύχτας. Κατά τη διάρκεια της νύχτας, η εικόνα δεν είναι σκοτεινή μιας και η υπέρυθρη ακτινοβολία μπορεί να εντοπίσει τις διαφορές στη θερμοκρασία. Δυστυχώς, είναι δύσκολο να ξεχωρίσουν οι χαμηλές νεφώσεις και η ομίχλη από τις θερμοκρασίες εδάφους και έτσι μπορεί να είναι σχετικά αόρατα κατά τη διάρκεια της νύχτας. Οι εικόνες από τον δορυφόρο Meteosat για την Ευρώπη ενημερώνονται σε πραγματικό χρόνο κάθε 5 λεπτά. Οι εικόνες από τους δορυφόρους GOES-16/GOES-17 (Βόρεια & Λατινική Αμερική) και Himawari (Ασία) ενημερώνονται κάθε 10 λεπτά.

Επιστροφή στην κορυφή